TimeMDT,TemperatureF,Dew PointF,Humidity,Sea Level PressureIn,VisibilityMPH,Wind Direction,Wind SpeedMPH,Gust SpeedMPH,PrecipitationIn,Events,Conditions,WindDirDegrees,DateUTC
12:55 AM,48.0,46.9,96,29.94,10.0,Calm,Calm,-,N/A,,Overcast,0,2013-05-18 06:55:00
1:55 AM,48.9,46.9,93,29.94,10.0,Calm,Calm,-,0.00,Rain,Light Rain,0,2013-05-18 07:55:00
2:55 AM,48.0,46.9,96,29.94,10.0,Calm,Calm,-,0.00,,Overcast,0,2013-05-18 08:55:00
3:55 AM,48.0,46.9,96,29.94,10.0,Calm,Calm,-,N/A,,Overcast,0,2013-05-18 09:55:00
4:21 AM,48.2,46.4,93,29.95,10.0,Calm,Calm,-,N/A,,Overcast,0,2013-05-18 10:21:00
4:55 AM,48.0,46.0,93,29.95,10.0,Calm,Calm,-,N/A,,Overcast,0,2013-05-18 10:55:00
5:55 AM,48.0,46.9,96,29.95,10.0,Calm,Calm,-,N/A,,Overcast,0,2013-05-18 11:55:00
6:55 AM,48.0,46.9,96,29.97,9.0,Calm,Calm,-,N/A,,Overcast,0,2013-05-18 12:55:00
7:03 AM,48.2,46.4,93,29.97,10.0,Calm,Calm,-,N/A,,Overcast,0,2013-05-18 13:03:00
7:13 AM,48.2,46.4,93,29.97,10.0,Calm,Calm,-,N/A,,Overcast,0,2013-05-18 13:13:00
7:21 AM,48.2,46.4,93,29.97,10.0,Calm,Calm,-,N/A,,Overcast,0,2013-05-18 13:21:00
7:43 AM,48.2,46.4,93,29.98,10.0,Calm,Calm,-,N/A,,Overcast,0,2013-05-18 13:43:00
7:55 AM,48.9,46.9,93,29.99,10.0,Calm,Calm,-,N/A,,Overcast,0,2013-05-18 13:55:00
8:07 AM,48.2,46.4,93,29.98,10.0,Calm,Calm,-,N/A,,Overcast,0,2013-05-18 14:07:00
8:46 AM,50.0,46.4,87,29.99,10.0,Calm,Calm,-,N/A,,Overcast,0,2013-05-18 14:46:00
8:55 AM,50.0,46.9,89,29.99,10.0,Calm,Calm,-,N/A,,Overcast,0,2013-05-18 14:55:00
9:06 AM,51.8,46.4,82,29.99,10.0,Calm,Calm,-,N/A,,Overcast,0,2013-05-18 15:06:00
9:15 AM,51.8,46.4,82,29.99,10.0,Calm,Calm,-,N/A,,Overcast,0,2013-05-18 15:15:00
9:55 AM,52.0,46.9,83,30.00,10.0,Calm,Calm,-,N/A,,Overcast,0,2013-05-18 15:55:00
10:30 AM,51.8,48.2,88,29.98,10.0,Calm,Calm,-,0.00,Rain,Light Rain,0,2013-05-18 16:30:00
10:41 AM,51.8,48.2,88,29.98,10.0,Calm,Calm,-,0.01,Rain,Light Rain,0,2013-05-18 16:41:00
10:55 AM,52.0,48.0,86,30.00,10.0,Calm,Calm,-,0.01,,Overcast,0,2013-05-18 16:55:00
11:41 AM,53.6,48.2,82,29.98,10.0,Calm,Calm,-,N/A,,Overcast,0,2013-05-18 17:41:00
11:55 AM,54.0,48.0,80,29.98,10.0,ESE,5.8,-,0.00,Rain,Light Rain,110,2013-05-18 17:55:00
12:30 PM,57.2,48.2,72,29.97,10.0,Calm,Calm,-,0.00,,Mostly Cloudy,0,2013-05-18 18:30:00
12:55 PM,57.2,46.4,67,29.97,10.0,North,3.5,-,N/A,,Overcast,350,2013-05-18 18:55:00
1:55 PM,59.0,48.0,67,29.95,10.0,Variable,3.5,-,N/A,,Mostly Cloudy,0,2013-05-18 19:55:00
2:07 PM,60.8,46.4,59,29.95,10.0,SE,4.6,-,N/A,,Mostly Cloudy,140,2013-05-18 20:07:00
2:14 PM,57.2,46.4,67,29.95,10.0,Variable,4.6,-,N/A,,Mostly Cloudy,0,2013-05-18 20:14:00
2:55 PM,57.9,46.9,67,29.96,10.0,SSE,6.9,-,N/A,,Mostly Cloudy,160,2013-05-18 20:55:00
3:06 PM,57.2,48.2,72,29.97,5.0,SSW,3.5,-,0.03,Rain,Light Rain,210,2013-05-18 21:06:00
3:31 PM,53.6,46.4,77,29.98,10.0,East,10.4,20.7,0.06,,Overcast,80,2013-05-18 21:31:00
4:55 PM,55.0,48.9,80,29.99,10.0,ESE,6.9,-,0.02,,Overcast,120,2013-05-18 22:55:00
5:55 PM,52.0,48.0,86,30.03,10.0,SW,5.8,-,0.03,Rain,Light Rain,230,2013-05-18 23:55:00
6:55 PM,51.1,50.0,96,30.04,10.0,SW,4.6,-,0.10,Rain,Light Rain,220,2013-05-19 00:55:00
7:23 PM,50.0,48.2,94,30.04,1.8,Calm,Calm,-,0.04,Rain,Heavy Rain,0,2013-05-19 01:23:00
7:29 PM,51.8,48.2,88,30.04,2.5,SW,3.5,-,0.08,Rain,Light Rain,220,2013-05-19 01:29:00
7:55 PM,50.0,48.0,93,30.06,3.0,Calm,Calm,-,0.14,Rain,Rain,0,2013-05-19 01:55:00
8:55 PM,48.9,48.0,97,30.07,8.0,SW,4.6,-,0.12,Rain,Light Rain,230,2013-05-19 02:55:00
9:55 PM,48.9,46.9,93,30.09,10.0,Calm,Calm,-,0.02,Rain,Light Rain,0,2013-05-19 03:55:00
10:55 PM,48.9,46.9,93,30.09,10.0,South,3.5,-,0.01,Rain,Light Rain,180,2013-05-19 04:55:00
11:53 PM,48.2,46.4,93,30.08,10.0,Calm,Calm,-,0.00,,Overcast,0,2013-05-19 05:53:00
11:55 PM,48.0,46.9,96,30.09,10.0,Calm,Calm,-,0.00,,Overcast,0,2013-05-19 05:55:00